Location: Newark
(39.5667°N, 8.9833°E)
Time: 08:23:32
(UTC+00:00)

Transit 2A - Pass Details

Date: 27 October 2019
Orbit: 601 x 957 km, 66.7° (Epoch: 13 November)

Event Time Altitude Azimuth Distance (km) Brightness Sun altitude
Rises 16:18:59 0° 195° (SSW) 3,389 9.8 1.0°
Reaches altitude 10° 16:21:34 10° 191° (SSW) 2,402 9.0 0.5°
Maximum altitude 16:26:56 55° 115° (ESE) 909 6.2 -0.4°
Drops below altitude 10° 16:31:47 10° 38° (NE) 2,183 7.9 -1.3°
Sets 16:34:03 0° 34° (NE) 3,054 8.6 -1.8°
